Location: Rancho Santa Fe Post Office
(33.0184°N, 117.2026°W)
Time: 03:04:37
(UTC+00:00)

Cosmos 2219 Rocket - Pass Details

Date: 10 September 2024
Orbit: 827 x 845 km, 71.0° (Epoch: 06 October)

Event Time Altitude Azimuth Distance (km) Brightness Sun altitude
Rises 12:16:17 0° 343° (NNW) 3,393 5.4 -15.9°
Reaches altitude 10° 12:18:47 10° 347° (NNW) 2,453 4.7 -15.4°
Maximum altitude 12:24:20 60° 67° (ENE) 947 2.8 -14.3°
Drops below altitude 10° 12:29:50 10° 148° (SSE) 2,428 4.8 -13.1°
Sets 12:32:17 0° 151° (SSE) 3,356 5.5 -12.6°
